Location: LDNL
(36.4545°S, 141.6685°E)
Time: 10:49:32
(UTC+10:00)

Explorer 7 - Pass Details

Date: 18 August 2022
Orbit: 482 x 668 km, 50.3° (Epoch: 26 September)

Event Time Altitude Azimuth Distance (km) Brightness Sun altitude
Rises 21:15:59 0° 227° (SW) 2,985 11.3 -39.4°
Enters shadow 21:18:10 - 217° (SW) 2,242 10.4 -39.8°
Reaches altitude 10° 21:18:48 10° 213° (SSW) 2,045 - -39.9°
Maximum altitude 21:22:34 23° 159° (SSE) 1,325 - -40.6°
Drops below altitude 10° 21:26:11 10° 106° (ESE) 1,946 - -41.3°
Sets 21:28:47 0° 91° (E) 2,806 - -41.8°
